EW8476 Weather Reports


Display with metric or nautical units.
time (UTC)temp
F
wind
direction
speed
MPH
gust
MPH
rain 1hr
in
rain 24hr
in
rain mn
in
humidity
%
barometer
mb
20260505041558 68 189 9.0 16.0 0.00 0.00 0.00 80 935.4
20260505040532 68 186 10.0 14.0 0.00 0.00 0.00 80 935.4
20260505035517 68 177 9.0 13.0 0.00 0.00 0.00 80 935.4
20260505034608 69 179 9.0 14.0 0.00 0.00 0.00 79 935.3
20260505033535 69 181 9.0 15.0 0.00 0.00 0.00 79 935.2
20260505032539 69 184 11.0 16.0 0.00 0.00 0.00 79 935.2
20260505031642 69 187 11.0 15.0 0.00 0.00 0.00 79 935.2
20260505030554 69 177 11.0 16.0 0.00 0.00 0.00 79 935.1
20260505025539 69 176 11.0 15.0 0.00 0.00 0.00 79 934.9
20260505024617 69 178 9.0 16.0 0.00 0.00 0.00 78 934.7
20260505023640 69 173 8.0 15.0 0.00 0.00 0.00 77 934.7
20260505022553 70 185 12.0 16.0 0.00 0.00 0.00 76 934.9
20260505021546 70 182 12.0 18.0 0.00 0.00 0.00 76 934.8
20260505020553 71 184 14.0 20.0 0.00 0.00 0.00 74 934.8
20260505015518 70 184 11.0 21.0 0.00 0.00 0.00 75 934.8
20260505014603 71 186 12.0 20.0 0.00 0.00 0.00 74 934.8
20260505013553 71 186 14.0 19.0 0.00 0.00 0.00 73 934.7
20260505012535 71 188 13.0 21.0 0.00 0.00 0.00 73 934.5
20260505011516 71 179 9.0 15.0 0.00 0.00 0.00 72 934.7
20260505010607 72 186 11.0 17.0 0.00 0.00 0.00 71 934.8
20260505005551 72 187 10.0 18.0 0.00 0.00 0.00 71 935.1
20260505004537 73 180 12.0 19.0 0.00 0.00 0.00 70 934.9
20260505003523 73 187 13.0 21.0 0.00 0.00 0.00 68 935.0
20260505002615 74 197 12.0 21.0 0.00 0.00 0.00 67 935.2
20260505001559 74 187 10.0 20.0 0.00 0.00 0.00 67 935.1
20260505000539 74 182 12.0 20.0 0.00 0.00 0.00 66 934.9
20260504235518 75 192 14.0 20.0 0.00 0.00 0.00 65 934.9
20260504234606 75 187 15.0 21.0 0.00 0.00 0.00 65 935.0
20260504233552 75 188 14.0 23.0 0.00 0.00 0.00 65 934.9
20260504232538 75 185 14.0 21.0 0.00 0.00 0.00 65 935.1
20260504231515 75 182 11.0 19.0 0.00 0.00 0.00 65 934.9
20260504230623 75 200 15.0 22.0 0.00 0.00 0.00 63 934.9
20260504225544 76 180 11.0 19.0 0.00 0.00 0.00 63 935.2
20260504224531 76 187 13.0 21.0 0.00 0.00 0.00 64 935.4
20260504223612 75 183 15.0 23.0 0.00 0.00 0.00 63 935.3
20260504222620 76 196 13.0 21.0 0.00 0.00 0.00 62 935.5
20260504221546 76 190 11.0 19.0 0.00 0.00 0.00 63 935.6
20260504220553 75 174 12.0 21.0 0.00 0.00 0.00 64 935.7
20260504215536 75 183 12.0 21.0 0.00 0.00 0.00 64 935.8
20260504214558 76 183 12.0 17.0 0.00 0.00 0.00 64 936.1
20260504213551 76 180 12.0 22.0 0.00 0.00 0.00 64 936.2
20260504212532 75 209 14.0 21.0 0.00 0.00 0.00 64 936.1
20260504211615 75 189 12.0 23.0 0.00 0.00 0.00 64 936.2
20260504210559 75 185 11.0 20.0 0.00 0.00 0.00 64 936.2
20260504205606 75 186 14.0 20.0 0.00 0.00 0.00 64 936.4
20260504204526 75 185 12.0 21.0 0.00 0.00 0.00 65 936.6
20260504203516 76 189 9.0 19.0 0.00 0.00 0.00 64 936.7
20260504202559 76 195 14.0 22.0 0.00 0.00 0.00 63 936.9
20260504201601 75 193 12.0 22.0 0.00 0.00 0.00 63 936.9
20260504200528 75 199 12.0 19.0 0.00 0.00 0.00 64 937.1
20260504195536 75 185 13.0 21.0 0.00 0.00 0.00 64 937.4
20260504194603 75 181 12.0 19.0 0.00 0.00 0.00 65 937.4
20260504193553 75 195 13.0 21.0 0.00 0.00 0.00 66 937.5
20260504192538 74 192 14.0 22.0 0.00 0.00 0.00 65 937.8
20260504191526 74 185 11.0 19.0 0.00 0.00 0.00 66 937.7
20260504190717 73 175 12.0 19.0 0.00 0.00 0.00 67 937.6
20260504185552 73 185 12.0 19.0 0.00 0.00 0.00 68 937.7
20260504184542 72 181 14.0 22.0 0.00 0.00 0.00 68 937.9
20260504183519 71 185 13.0 22.0 0.00 0.00 0.00 70 937.8
20260504182653 71 195 13.0 24.0 0.00 0.00 0.00 70 937.9
20260504181548 71 182 14.0 25.0 0.00 0.00 0.00 70 938.1
20260504180637 71 172 11.0 24.0 0.00 0.00 0.00 71 938.2
20260504175617 71 209 14.0 22.0 0.00 0.00 0.00 71 938.4
20260504174554 70 202 10.0 21.0 0.00 0.00 0.00 71 938.3
20260504173625 70 201 11.0 22.0 0.00 0.00 0.00 70 938.3
20260504172532 70 199 12.0 21.0 0.00 0.00 0.00 71 938.6
20260504171526 69 200 15.0 20.0 0.00 0.00 0.00 72 938.7
20260504170607 69 210 15.0 22.0 0.00 0.00 0.00 74 938.7
20260504150556 63 194 17.0 25.0 0.00 0.00 0.00 83 938.7
20260504140539 62 193 16.0 26.0 0.00 0.00 0.00 86 938.5
20260504130558 59 178 15.0 26.0 0.00 0.00 0.00 88 938.1
20260504110546 58 177 16.0 21.0 0.00 0.00 0.00 87 937.8
20260504100516 58 177 14.0 22.0 0.00 0.00 0.00 86 938.2
20260504081524 58 180 13.0 21.0 0.00 0.00 0.00 83 939.0
20260504080608 58 176 14.0 20.0 0.00 0.00 0.00 82 939.3
20260504050545 59 169 5.0 11.0 0.00 0.00 0.00 66 941.0
20260504045534 60 173 6.0 11.0 0.00 0.00 0.00 64 941.0